Tracking 35331 objects as of 14-Sep-2026
HD Live streaming from Space Station
objects crossing your sky now

QIANFAN-38

Track QIANFAN-38 now!
10-day predictions
QIANFAN-38 is classified as:


NORAD ID: 62239
Int'l Code: 2024-232C
Launch date: December 5, 2024
Source: People's Republic of China (PRC)
Launch site: Taiyaun Space Center, China (TSC)
Your satellite tracking list
Your tracking list is empty




NASA's NSSDC Master Catalog

Two Line Element Set (TLE):
1 62239U 24232C   26257.53142704  .00000097  00000-0  13092-3 0  9997
2 62239  89.0159  13.5679 0016434 116.9821 243.3011 13.51027816136461
Source of the keplerian elements: AFSPC